EN

Hourly Weather Trytel'nyky

Today, 18 May, Tuesday

Time Temperature Precipitation Wind Pressure Humidity
00:00 +11°C° 0.1 mm 0 mps 723 mmHg 87%
01:00 +11°C° 0.1 mm 0 mps 723 mmHg 88%
02:00 +12°C° 0 mm 1 mps 722 mmHg 91%
03:00 +11°C° 0 mm 1 mps 722 mmHg 91%
04:00 +11°C° 0 mm 1 mps 722 mmHg 92%
05:00 +11°C° 0 mm 1 mps 721 mmHg 93%
06:00 +13°C° 0.1 mm 1 mps 722 mmHg 89%
07:00 +14°C° 0.1 mm 1 mps 722 mmHg 85%
08:00 +16°C° 0.1 mm 1 mps 722 mmHg 81%
09:00 +16°C° 0.7 mm 2 mps 722 mmHg 77%
10:00 +17°C° 0.7 mm 2 mps 722 mmHg 72%
11:00 +18°C° 0.7 mm 3 mps 722 mmHg 68%
12:00 +18°C° 0.6 mm 3 mps 721 mmHg 67%
13:00 +19°C° 0.6 mm 3 mps 721 mmHg 66%
14:00 +19°C° 0.6 mm 3 mps 721 mmHg 65%
15:00 +18°C° 0.8 mm 4 mps 721 mmHg 70%
16:00 +17°C° 0.8 mm 4 mps 721 mmHg 75%
17:00 +16°C° 0.8 mm 5 mps 721 mmHg 79%
18:00 +15°C° 1.1 mm 6 mps 721 mmHg 83%
19:00 +14°C° 1.1 mm 6 mps 721 mmHg 86%
20:00 +12°C° 1.1 mm 7 mps 721 mmHg 90%
21:00 +12°C° 0.5 mm 7 mps 721 mmHg 92%
22:00 +11°C° 0.5 mm 7 mps 721 mmHg 94%
23:00 +11°C° 0.5 mm 8 mps 722 mmHg 95%

Tomorrow, 19 May, Wednesday

Time Temperature Precipitation Wind Pressure Humidity
00:00 +11°C° 0.4 mm 8 mps 722 mmHg 95%
01:00 +11°C° 0.4 mm 9 mps 722 mmHg 94%
02:00 +10°C° 0.4 mm 9 mps 722 mmHg 94%
03:00 +10°C° 1.2 mm 9 mps 723 mmHg 94%
04:00 +10°C° 1.2 mm 9 mps 723 mmHg 94%
05:00 +10°C° 1.2 mm 8 mps 724 mmHg 94%
06:00 +10°C° 0.2 mm 8 mps 724 mmHg 93%
07:00 +10°C° 0.2 mm 8 mps 725 mmHg 92%
08:00 +10°C° 0.2 mm 8 mps 725 mmHg 91%
09:00 +10°C° 0.1 mm 8 mps 726 mmHg 89%
10:00 +11°C° 0.1 mm 8 mps 726 mmHg 87%
11:00 +11°C° 0.1 mm 8 mps 727 mmHg 86%
12:00 +11°C° 0.2 mm 8 mps 727 mmHg 85%
13:00 +11°C° 0.2 mm 8 mps 727 mmHg 84%
14:00 +11°C° 0.2 mm 7 mps 728 mmHg 83%
15:00 +11°C° 0 mm 7 mps 728 mmHg 82%
16:00 +13°C° 0 mm 6 mps 728 mmHg 80%
17:00 +13°C° 0 mm 5 mps 728 mmHg 78%
18:00 +12°C° 0 mm 4 mps 728 mmHg 82%
19:00 +11°C° 0 mm 4 mps 728 mmHg 86%
20:00 +10°C° 0 mm 3 mps 728 mmHg 90%
21:00 +9°C° 0 mm 3 mps 728 mmHg 91%
22:00 +9°C° 0 mm 3 mps 729 mmHg 92%
23:00 +8°C° 0 mm 2 mps 729 mmHg 93%

Day after tomorrow, 20 May, Thursday

Time Temperature Precipitation Wind Pressure Humidity
00:00 +8°C° 0 mm 2 mps 729 mmHg 93%
01:00 +7°C° 0 mm 2 mps 728 mmHg 94%
02:00 +7°C° 0 mm 2 mps 728 mmHg 95%
03:00 +7°C° 0 mm 2 mps 728 mmHg 95%
04:00 +7°C° 0 mm 2 mps 728 mmHg 95%
05:00 +7°C° 0 mm 2 mps 728 mmHg 95%
06:00 +8°C° 0 mm 2 mps 728 mmHg 90%
07:00 +10°C° 0 mm 2 mps 728 mmHg 85%
08:00 +12°C° 0 mm 3 mps 729 mmHg 81%
09:00 +14°C° 0.1 mm 2 mps 729 mmHg 77%
10:00 +14°C° 0.1 mm 2 mps 729 mmHg 73%
11:00 +15°C° 0.1 mm 2 mps 729 mmHg 69%
12:00 +16°C° 0.2 mm 2 mps 729 mmHg 68%
13:00 +16°C° 0.2 mm 3 mps 728 mmHg 67%
14:00 +16°C° 0.2 mm 3 mps 728 mmHg 66%
15:00 +16°C° 0.3 mm 3 mps 728 mmHg 68%
16:00 +15°C° 0.3 mm 4 mps 728 mmHg 71%
17:00 +14°C° 0.3 mm 4 mps 728 mmHg 74%
18:00 +13°C° 1.1 mm 4 mps 728 mmHg 79%
19:00 +12°C° 1.1 mm 4 mps 728 mmHg 83%
20:00 +11°C° 1.1 mm 4 mps 728 mmHg 88%
21:00 +11°C° 0.9 mm 4 mps 729 mmHg 90%
22:00 +10°C° 0.9 mm 5 mps 729 mmHg 92%
23:00 +10°C° 0.9 mm 5 mps 729 mmHg 94%

21 May, Friday

Time Temperature Precipitation Wind Pressure Humidity
00:00 +9°C° 1.4 mm 5 mps 729 mmHg 94%
01:00 +9°C° 1.4 mm 5 mps 729 mmHg 94%
02:00 +9°C° 1.4 mm 5 mps 730 mmHg 94%
03:00 +9°C° 0.3 mm 5 mps 730 mmHg 94%
04:00 +8°C° 0.3 mm 5 mps 730 mmHg 94%
05:00 +8°C° 0.3 mm 6 mps 731 mmHg 94%
06:00 +9°C° 0.1 mm 6 mps 731 mmHg 91%
07:00 +9°C° 0.1 mm 5 mps 732 mmHg 89%
08:00 +10°C° 0.1 mm 5 mps 732 mmHg 87%
09:00 +12°C° 0.4 mm 5 mps 732 mmHg 82%
10:00 +13°C° 0.4 mm 5 mps 732 mmHg 77%
11:00 +14°C° 0.4 mm 6 mps 732 mmHg 71%
12:00 +15°C° 0.6 mm 5 mps 733 mmHg 70%
13:00 +15°C° 0.6 mm 5 mps 733 mmHg 69%
14:00 +15°C° 0.6 mm 5 mps 733 mmHg 68%
15:00 +15°C° 0.4 mm 5 mps 733 mmHg 69%
16:00 +15°C° 0.4 mm 4 mps 733 mmHg 69%
17:00 +15°C° 0.4 mm 4 mps 733 mmHg 70%
18:00 +14°C° 0.3 mm 3 mps 733 mmHg 75%
19:00 +12°C° 0.3 mm 3 mps 733 mmHg 80%
20:00 +12°C° 0.3 mm 2 mps 734 mmHg 85%
21:00 +10°C° 0 mm 2 mps 734 mmHg 86%
22:00 +10°C° 0 mm 2 mps 734 mmHg 87%
23:00 +10°C° 0 mm 1 mps 733 mmHg 88%

22 May, Saturday

Time Temperature Precipitation Wind Pressure Humidity
00:00 +10°C° 0 mm 1 mps 733 mmHg 88%
01:00 +9°C° 0 mm 1 mps 733 mmHg 87%
02:00 +9°C° 0 mm 1 mps 733 mmHg 87%
03:00 +9°C° 0 mm 1 mps 733 mmHg 87%
04:00 +9°C° 0 mm 1 mps 733 mmHg 88%
05:00 +9°C° 0 mm 1 mps 733 mmHg 88%
06:00 +11°C° 0 mm 1 mps 733 mmHg 84%
07:00 +12°C° 0 mm 1 mps 733 mmHg 81%
08:00 +14°C° 0 mm 2 mps 733 mmHg 77%
09:00 +15°C° 0 mm 2 mps 733 mmHg 72%
10:00 +16°C° 0 mm 2 mps 733 mmHg 68%
11:00 +18°C° 0 mm 3 mps 733 mmHg 63%
12:00 +18°C° 0 mm 3 mps 733 mmHg 61%
13:00 +19°C° 0 mm 4 mps 733 mmHg 59%
14:00 +20°C° 0 mm 4 mps 732 mmHg 56%
15:00 +20°C° 0 mm 4 mps 732 mmHg 59%
16:00 +20°C° 0 mm 4 mps 732 mmHg 62%
17:00 +20°C° 0 mm 4 mps 731 mmHg 65%
18:00 +18°C° 0 mm 4 mps 731 mmHg 72%
19:00 +15°C° 0 mm 4 mps 731 mmHg 79%
20:00 +14°C° 0 mm 4 mps 731 mmHg 85%
21:00 +13°C° 0 mm 4 mps 731 mmHg 87%
22:00 +12°C° 0 mm 4 mps 731 mmHg 88%
23:00 +12°C° 0 mm 4 mps 731 mmHg 90%

23 May, Sunday

Time Temperature Precipitation Wind Pressure Humidity
00:00 +12°C° 0 mm 4 mps 731 mmHg 89%
01:00 +12°C° 0 mm 4 mps 731 mmHg 88%
02:00 +12°C° 0 mm 4 mps 731 mmHg 87%
03:00 +11°C° 0 mm 4 mps 731 mmHg 87%
04:00 +11°C° 0 mm 4 mps 730 mmHg 87%
05:00 +11°C° 0 mm 3 mps 730 mmHg 87%
06:00 +13°C° 0 mm 3 mps 730 mmHg 82%
07:00 +14°C° 0 mm 3 mps 731 mmHg 77%
08:00 +17°C° 0 mm 3 mps 731 mmHg 73%
09:00 +18°C° 0 mm 3 mps 731 mmHg 70%
10:00 +19°C° 0 mm 3 mps 731 mmHg 67%
11:00 +20°C° 0 mm 4 mps 732 mmHg 64%
12:00 +20°C° 0 mm 4 mps 732 mmHg 64%
13:00 +20°C° 0 mm 4 mps 732 mmHg 64%
14:00 +20°C° 0 mm 5 mps 732 mmHg 64%
15:00 +19°C° 0.1 mm 4 mps 732 mmHg 68%
16:00 +17°C° 0.1 mm 4 mps 732 mmHg 72%
17:00 +16°C° 0.1 mm 3 mps 732 mmHg 76%
18:00 +14°C° 0 mm 3 mps 732 mmHg 78%
19:00 +14°C° 0 mm 2 mps 733 mmHg 80%
20:00 +13°C° 0 mm 1 mps 733 mmHg 82%
21:00 +13°C° 0 mm 2 mps 733 mmHg 82%
22:00 +12°C° 0 mm 2 mps 733 mmHg 81%
23:00 +12°C° 0 mm 2 mps 734 mmHg 80%
Show more

We Need Your Consent

Meteoprog and our Service Providers may store and access personal data such as cookies, device identifiers or other similar technologies on your device and process such data to personalise content and ads, as well as provide social media features and to analyse the traffic.

  • Store and/or access information on your device

    Cookies, device identifiers or other information can be stored or accessed on your device for the purposes indicated above.

  • Personalised ads and content, ad and content measurement, audience insights, and products development

    Ads and content can be personalised based on a profile. More data can be added to better personalise ads and content. Ad and content performance can be measured. Insights about the audience who saw the ads and content can be derived. Such data can be used to develop or improve user’s experience, systems and software.

By clicking ‘I Agree’ you will allow the use of indicated cookies, device identifiers, web beacons or other similar technologies. Your settings can be changed in the browser on your device.

For certain purposes, legitimate interests may be relied on, rather than consent. You can read more about this in our Privacy and Cookie Policy.